SCP
-0 -0 -0 -0 -0 -0 -0 -0 -0 -0 0 0 0 -0 -0 -0 0 -0 -0 -0 -0 -0 -0 -0 0 0 0 0 0 -0 -0 -0 -0 -0 -0 -0 -0 -0 -0 -0 -0 -0 -0
0 -0 -0 -0 -0 -0 -0 -0 -0 -0 -0 -0 0 0 0 -0 -0 -0 -0 -0 0 -0 -0 -0 -0 -0 0 0 0 0 0 0 0 0 0 0 -0 -0 -0 -0 -0 -0 -0
0 0 -0 -0 -0 -0 -0 -0 -0 -0 -0 -0 -0 0 0 0 -0 -0 -0 0 -0 -0 -0 -0 -0 -0 -0 0 0 0 0 0 0 0 0 0 0 -0 -0 -0 -0 -0 -0
-0 -0 -0 -0 -0 -0 -0 -0 -0 -0 -0 -0 -0 -0 -0 0 0 0 -0 -0 -0 -0 -0 -0 -0 -0 0 0 0 0 0 0 0 0 0 0 0 0 0 -0 -0 -0 -0
-0 -0 -0 -0 -0 -0 -0 -0 -0 -0 -0 -0 -0 -0 -0 -0 -0 0 0 -0 -0 -0 -0 0 -0 0 0 0 0 0 0 0 0 0 0 0 0 0 0 0 0 0 0
-0 -0 -0 -0 -0 -0 -0 -0 -0 -0 -0 -0 -0 -0 -0 -0 -0 -0 -0 -0 -0 0 0 0 0 0 0 0 0 0 0 0 0 0 0 0 0 0 0 0 0 0 0
-0 -0 -0 -0 -0 -0 -0 -0 -0 -0 -0 -0 -0 -0 -0 -0 -0 0 0 0 0 0 0 0 0 0 0 0 0 0 0 0 0 0 0 0 0 0 0 0 0 0 0
0 0 0 0 0 0 0 -0 -0 -0 -0 -0 0 0 0 0 0 0 0 0 0 0 0 0 0 0 0 0 0 0 0 0 0 0 0 0 0 0 0 0 0 0 0
0 -0 0 0 0 0 0 0 0 0 0 0 0 0 0 0 0 0 0 0 0 0 0 0 0 0 0 0 0 0 0 0 0 0 0 0 0 0 0 0 0 0 0
0 0 0 0 0 0 0 0 0 0 0 0 0 0 0 0 0 0 0 0 0 0 0 0 0 0 0 0 0 0 0 0 0 0 0 0 0 0 0 0 0 0 0
0 0 0 0 0 0 0 0 0 0 0 0 0 0 0 0 0 0 0 0 0 0 0 0 0 0 0 0 0 0 0 0 0 0 0 0 0 0 0 0 0 0 0
0 0 0 0 0 0 0 0 0 0 0 0 0 0 0 0 0 0 0 0 0 0 0 0 0 0 0 0 0 0 0 0 0 0 0 0 0 0 0 0 0 0 0
0 0 0 0 0 0 0 0 0 0 0 0 0 0 0 0 0 0 0 0 0 0 0 0 0 0 0 0 0 0 0 0 0 0 0 0 0 0 0 0 0 0 0
0 0 0 0 0 0 0 0 0 0 0 0 0 0 0 0 0 0 0 0 0 0 0 0 0 0 0 0 0 0 0 0 0 0 0 0 0 0 0 0 0 0 0
0 0 0 0 0 0 0 0 0 0 0 0 0 0 0 0 0 0 0 0 0 0 0 0 0 0 0 0 0 0 0 0 0 0 0 0 0 0 0 0 0 0 0
0 0 0 0 0 0 0 0 0 0 0 0 0 0 0 0 0 0 0 0 0 0 0 0 0 0 0 0 0 0 0 0 0 0 0 0 0 0 0 0 0 0 0
0 0 0 0 0 0 0 0 0 0 0 0 0 0 0 0 0 0 0 0 0 0 0 0 0 0 0 0 0 0 0 0 0 0 0 0 0 0 0 0 0 0 0
0 0 0 0 0 0 0 0 0 0 0 0 0 0 0 0 0 0 0 0 0 0 0 0 0 0 0 0 0 0 0 0 0 0 0 0 0 0 0 0 0 0 0
0 0 0 0 0 0 0 0 0 0 0 0 0 0 0 0 0 0 0 0 0 0 0 0 0 0 0 0 0 0 0 0 0 0 0 0 0 0 0 0 0 0 0
0 0 0 0 0 0 0 0 0 0 0 0 0 0 0 0 0 0 0 0 0 0 0 0 0 0 0 0 0 0 0 0 0 0 0 0 0 0 0 0 0 0 0
0 0 0 0 0 0 0 0 0 0 0 0 0 0 0 0 0 0 0 0 0 0 0 0 0 0 0 0 0 0 0 0 0 0 0 0 0 0 0 0 0 0 0
0 0 0 0 0 0 0 0 0 0 0 0 0 0 0 0 0 0 0 0 0 0 0 0 0 0 0 0 0 -0 -0 -0 0 0 0 0 0 0 0 0 0 0 0
0 0 0 0 0 0 0 0 0 0 0 0 0 0 0 0 0 0 0 0 0 0 0 0 0 0 0 0 0 0 0 0 0 0 0 0 0 0 0 0 0 0 0
0 0 0 0 0 0 0 0 0 0 0 0 0 0 0 0 0 0 0 0 0 0 0 0 0 0 0 0 0 0 0 0 -0 0 0 0 0 0 0 0 0 0 0
0 0 0 0 0 0 0 0 0 0 -0 -0 0 0 0 0 0 0 0 0 0 0 0 0 0 0 0 0 0 0 0 0 0 0 0 0 0 0 0 0 0 0 0
0 0 0 0 0 0 0 0 0 0 0 0 0 0 0 0 0 0 0 0 0 0 0 0 0 0 0 0 0 0 0 0 0 0 0 0 0 0 0 0 0 0 0
Wind_Speed_500mb
22 40 38 38 36 31 29 24 18 16 12 8 7 8 10 11 12 9 8 12 17 16 11 11 11 10 8 9 12 11 10 11 11 11 11 13 15 17 19 21 25 20 16
18 40 37 37 34 32 31 26 20 17 10 3 3 6 8 10 7 1 5 11 16 16 8 9 9 8 8 8 6 6 9 7 8 8 7 6 8 10 12 14 19 24 21
14 37 38 37 32 29 29 25 22 18 13 8 4 2 3 3 2 5 8 12 15 18 9 7 7 6 7 6 5 4 5 4 5 7 8 7 4 2 4 5 8 10 15
12 28 35 34 31 27 26 24 23 20 16 12 9 7 6 5 4 6 10 16 16 16 15 5 4 5 5 5 4 3 3 3 4 6 8 11 10 7 2 1 2 5 7
10 20 28 31 28 25 23 23 23 22 17 13 10 9 7 7 6 4 7 16 23 20 20 6 3 2 3 2 3 4 4 3 4 5 6 9 12 12 16 9 4 7 9
7 13 24 29 29 26 22 23 20 18 15 13 13 12 10 8 5 6 13 20 26 24 20 11 6 6 7 6 7 8 8 7 5 7 7 9 10 14 17 16 11 6 8
5 8 15 26 29 29 29 24 20 16 16 14 15 12 9 9 9 10 15 22 25 26 21 11 7 7 8 9 8 9 10 9 8 9 10 12 12 15 18 17 16 10 5
6 5 9 17 28 30 31 26 23 19 16 14 13 11 16 7 8 10 12 16 19 21 14 8 7 9 10 10 9 9 10 9 10 10 11 13 14 16 17 16 13 12 9
5 3 5 9 19 29 33 32 27 23 22 21 22 13 19 18 15 15 14 15 17 16 15 9 9 9 9 7 6 4 4 5 7 9 11 12 14 15 14 14 13 11 10
2 1 5 10 14 20 28 34 35 32 29 25 25 18 25 25 23 18 16 16 17 17 19 14 13 12 10 6 4 3 3 3 5 7 9 10 12 13 15 15 14 15 13
11 12 14 16 18 19 23 28 33 34 32 29 28 27 31 30 30 25 21 19 20 18 17 15 13 13 13 11 8 6 5 5 6 8 9 11 12 13 14 15 15 16 15
18 22 24 24 23 22 22 25 29 32 32 30 30 32 35 33 27 25 25 20 23 22 20 20 16 13 14 15 14 13 11 10 9 10 10 11 13 14 14 15 15 16 17
4 11 23 28 29 28 26 23 24 28 31 25 28 34 31 31 31 31 29 27 27 25 24 26 21 19 17 17 17 17 17 16 15 14 13 13 14 14 14 15 16 17 17
10 12 12 18 26 31 30 27 22 20 22 25 26 28 33 32 33 33 28 29 30 27 28 30 34 23 21 21 21 21 21 20 20 19 18 17 16 16 17 18 18 18 16
13 14 17 19 23 30 33 29 24 18 15 18 29 29 25 29 34 31 33 32 32 30 30 33 35 28 27 25 25 25 26 25 25 24 23 21 19 18 18 19 19 19 18
17 17 16 18 20 24 33 33 27 19 12 7 7 18 30 31 31 31 33 34 36 25 31 33 36 33 30 28 27 29 30 31 30 28 26 25 24 22 22 21 21 21 21
17 15 12 10 10 11 23 30 25 18 15 11 8 6 8 11 17 21 20 23 30 33 32 34 38 32 39 32 27 29 31 35 36 35 33 31 29 27 26 25 24 24 22
17 16 16 11 8 9 22 30 30 22 15 8 4 8 11 16 21 24 30 32 31 28 21 28 32 31 31 30 32 33 32 34 35 38 40 38 36 34 31 30 29 26 25
22 25 25 25 26 25 25 29 26 19 13 6 4 8 10 13 19 18 12 15 11 20 23 24 25 31 32 33 33 35 37 38 37 38 39 40 42 42 39 36 35 33 31
30 34 37 42 44 45 41 37 32 23 12 4 2 6 11 15 19 19 19 21 18 17 16 20 29 34 37 34 36 44 45 43 46 47 44 43 44 46 45 45 44 41 37
36 40 41 40 41 36 34 31 25 18 13 5 4 6 7 11 18 22 25 27 30 28 26 26 24 28 30 35 42 45 49 54 49 53 49 42 40 41 44 47 48 48 45
62 63 61 57 52 50 48 46 40 33 30 27 22 14 7 5 9 12 15 22 25 27 30 31 34 35 40 38 38 45 36 49 45 32 26 26 29 28 28 38 47 50 50
60 57 56 55 51 49 44 40 36 31 28 24 20 16 15 10 6 5 6 8 12 16 20 24 27 32 32 31 25 21 18 20 52 47 49 52 52 54 46 40 34 34 42
49 45 46 46 44 42 34 28 25 26 24 27 23 22 20 19 17 16 16 15 16 16 16 18 19 19 21 27 25 22 20 27 25 33 39 60 59 57 58 58 56 49 39
38 37 37 36 34 32 23 21 21 25 30 29 26 21 20 20 21 22 22 23 24 27 28 26 26 27 27 27 28 30 30 30 31 38 55 65 67 58 52 58 65 67 63
32 30 26 25 27 24 21 22 24 28 31 25 22 19 19 19 18 19 22 24 25 25 27 29 30 29 29 27 28 29 30 32 37 40 54 70 76 74 67 59 49 49 54
Wind_Direction_500mb
179 180 179 176 175 175 176 173 172 171 162 140 113 101 96 91 101 80 61 25 11 11 34 50 72 93 96 94 125 124 104 91 88 83 80 83 90 82 84 86 85 79 85
179 181 181 174 176 177 179 184 188 187 183 167 104 93 92 109 135 155 360 3 2 0 38 52 60 72 88 93 90 88 87 83 69 58 55 62 76 86 92 96 90 87 79
163 181 181 180 179 178 181 185 186 189 201 212 220 205 168 200 259 311 336 343 355 4 17 37 55 63 65 67 81 82 93 59 21 8 17 22 25 67 95 129 126 108 94
139 179 185 183 186 181 182 187 193 203 212 215 226 247 264 272 284 312 333 325 357 9 2 5 36 38 48 48 35 39 21 45 9 21 25 30 33 30 29 274 215 192 155
123 170 190 192 190 192 196 198 202 202 204 214 232 246 255 263 264 300 322 327 341 350 352 327 316 327 335 359 327 307 309 316 331 357 0 3 7 57 43 39 329 266 243
111 155 190 200 202 200 206 197 196 195 210 226 239 251 261 255 246 288 302 312 318 324 333 316 302 295 294 293 288 289 292 297 304 317 324 330 344 331 341 347 348 327 275
82 158 189 204 209 209 214 212 210 209 212 240 232 244 254 253 274 302 311 313 310 313 324 305 299 297 298 294 286 279 278 287 296 300 306 308 315 317 325 333 336 335 271
56 162 190 206 215 220 223 229 227 231 234 238 241 233 259 242 286 300 301 327 331 315 299 310 311 313 310 308 295 278 274 283 287 289 293 298 305 311 319 326 331 332 331
58 84 211 224 223 225 227 233 231 234 247 241 257 234 248 271 288 301 300 314 325 334 334 332 322 319 318 318 314 317 305 299 302 307 305 305 306 310 314 320 322 321 316
201 242 251 248 243 238 234 234 236 241 244 242 254 246 249 260 273 281 291 298 316 328 344 346 336 327 315 301 299 309 313 313 312 313 313 315 316 315 316 317 319 315 310
228 233 232 238 247 247 241 241 241 242 242 243 241 244 249 261 270 272 277 287 298 306 318 330 326 326 308 292 277 270 274 284 295 303 306 308 309 311 312 315 316 312 311
239 244 245 243 238 240 247 242 239 240 239 242 245 249 256 264 263 277 287 284 290 292 301 308 316 308 297 288 286 285 284 283 284 290 297 301 305 308 309 310 311 312 313
260 255 248 241 237 236 236 242 244 237 241 237 243 242 251 262 265 275 277 279 288 301 306 303 300 305 293 281 276 278 280 283 285 287 288 290 294 298 301 304 309 313 314
308 302 287 257 243 238 237 231 241 241 235 236 238 252 260 259 268 273 284 283 283 293 302 311 305 289 289 279 273 271 273 276 279 280 280 282 286 293 297 299 301 306 309
311 296 287 272 255 239 235 229 227 240 246 239 238 244 251 261 268 277 282 283 283 295 299 308 315 307 290 284 276 271 271 272 274 276 278 280 281 284 287 290 295 301 304
322 312 297 287 275 253 228 222 209 215 228 263 259 252 255 255 260 273 281 284 280 294 297 303 314 306 290 285 284 280 275 271 271 270 270 272 276 279 283 287 289 294 300
341 341 336 316 304 248 211 201 192 196 207 207 203 199 229 248 257 261 274 279 267 280 293 292 307 307 308 287 284 284 282 279 277 274 270 268 267 269 270 275 280 283 285
23 21 26 34 60 115 152 163 170 179 180 174 247 275 276 262 256 258 254 258 261 258 274 297 297 298 306 302 298 295 293 287 282 278 275 274 269 267 267 270 272 274 275
64 68 71 78 89 94 118 132 138 144 153 152 221 272 321 302 288 287 297 286 301 271 265 275 272 287 290 286 286 292 301 301 293 284 280 277 274 274 272 267 266 266 265
80 81 81 86 92 100 105 111 115 116 128 156 330 319 324 313 324 341 318 332 321 318 313 298 284 292 286 287 290 288 295 302 302 299 289 280 277 275 272 270 269 268 265
98 93 91 92 89 91 100 105 113 124 120 85 27 22 353 320 311 320 320 319 315 314 318 319 322 320 319 314 309 300 295 292 295 297 293 285 278 271 265 266 269 270 269
94 93 93 92 92 89 87 84 87 90 91 85 82 75 68 348 313 306 302 304 308 305 301 299 300 304 305 310 316 317 317 304 301 284 282 292 291 298 292 270 262 261 263
91 87 85 85 84 80 80 81 83 88 94 97 90 84 77 69 44 4 341 324 305 299 295 298 304 302 303 300 309 319 321 300 305 295 289 290 286 290 291 291 288 273 263
91 88 87 82 75 75 81 85 96 101 105 92 79 68 60 51 44 36 26 18 10 5 350 344 337 330 322 311 305 292 288 296 311 312 301 298 297 293 291 288 284 278 276
101 96 89 81 73 76 80 98 95 90 85 81 73 61 53 47 38 33 29 26 19 18 18 14 8 1 347 339 335 325 308 298 296 304 308 303 302 300 292 286 283 279 276
101 94 91 82 66 73 81 85 81 83 89 85 72 55 42 37 31 27 20 14 13 9 4 3 3 358 357 352 348 342 335 330 315 303 298 300 303 305 304 301 295 289 282
Wind_Speed_850mb
22 40 38 38 36 31 29 24 18 16 12 8 7 8 10 11 12 9 8 12 17 16 11 11 11 10 8 9 12 11 10 11 11 11 11 13 15 17 19 21 25 20 16
18 40 37 37 34 32 31 26 20 17 10 3 3 6 8 10 7 1 5 11 16 16 8 9 9 8 8 8 6 6 9 7 8 8 7 6 8 10 12 14 19 24 21
14 37 38 37 32 29 29 25 22 18 13 8 4 2 3 3 2 5 8 12 15 18 9 7 7 6 7 6 5 4 5 4 5 7 8 7 4 2 4 5 8 10 15
12 28 35 34 31 27 26 24 23 20 16 12 9 7 6 5 4 6 10 16 16 16 15 5 4 5 5 5 4 3 3 3 4 6 8 11 10 7 2 1 2 5 7
10 20 28 31 28 25 23 23 23 22 17 13 10 9 7 7 6 4 7 16 23 20 20 6 3 2 3 2 3 4 4 3 4 5 6 9 12 12 16 9 4 7 9
7 13 24 29 29 26 22 23 20 18 15 13 13 12 10 8 5 6 13 20 26 24 20 11 6 6 7 6 7 8 8 7 5 7 7 9 10 14 17 16 11 6 8
5 8 15 26 29 29 29 24 20 16 16 14 15 12 9 9 9 10 15 22 25 26 21 11 7 7 8 9 8 9 10 9 8 9 10 12 12 15 18 17 16 10 5
6 5 9 17 28 30 31 26 23 19 16 14 13 11 16 7 8 10 12 16 19 21 14 8 7 9 10 10 9 9 10 9 10 10 11 13 14 16 17 16 13 12 9
5 3 5 9 19 29 33 32 27 23 22 21 22 13 19 18 15 15 14 15 17 16 15 9 9 9 9 7 6 4 4 5 7 9 11 12 14 15 14 14 13 11 10
2 1 5 10 14 20 28 34 35 32 29 25 25 18 25 25 23 18 16 16 17 17 19 14 13 12 10 6 4 3 3 3 5 7 9 10 12 13 15 15 14 15 13
11 12 14 16 18 19 23 28 33 34 32 29 28 27 31 30 30 25 21 19 20 18 17 15 13 13 13 11 8 6 5 5 6 8 9 11 12 13 14 15 15 16 15
18 22 24 24 23 22 22 25 29 32 32 30 30 32 35 33 27 25 25 20 23 22 20 20 16 13 14 15 14 13 11 10 9 10 10 11 13 14 14 15 15 16 17
4 11 23 28 29 28 26 23 24 28 31 25 28 34 31 31 31 31 29 27 27 25 24 26 21 19 17 17 17 17 17 16 15 14 13 13 14 14 14 15 16 17 17
10 12 12 18 26 31 30 27 22 20 22 25 26 28 33 32 33 33 28 29 30 27 28 30 34 23 21 21 21 21 21 20 20 19 18 17 16 16 17 18 18 18 16
13 14 17 19 23 30 33 29 24 18 15 18 29 29 25 29 34 31 33 32 32 30 30 33 35 28 27 25 25 25 26 25 25 24 23 21 19 18 18 19 19 19 18
17 17 16 18 20 24 33 33 27 19 12 7 7 18 30 31 31 31 33 34 36 25 31 33 36 33 30 28 27 29 30 31 30 28 26 25 24 22 22 21 21 21 21
17 15 12 10 10 11 23 30 25 18 15 11 8 6 8 11 17 21 20 23 30 33 32 34 38 32 39 32 27 29 31 35 36 35 33 31 29 27 26 25 24 24 22
17 16 16 11 8 9 22 30 30 22 15 8 4 8 11 16 21 24 30 32 31 28 21 28 32 31 31 30 32 33 32 34 35 38 40 38 36 34 31 30 29 26 25
22 25 25 25 26 25 25 29 26 19 13 6 4 8 10 13 19 18 12 15 11 20 23 24 25 31 32 33 33 35 37 38 37 38 39 40 42 42 39 36 35 33 31
30 34 37 42 44 45 41 37 32 23 12 4 2 6 11 15 19 19 19 21 18 17 16 20 29 34 37 34 36 44 45 43 46 47 44 43 44 46 45 45 44 41 37
36 40 41 40 41 36 34 31 25 18 13 5 4 6 7 11 18 22 25 27 30 28 26 26 24 28 30 35 42 45 49 54 49 53 49 42 40 41 44 47 48 48 45
62 63 61 57 52 50 48 46 40 33 30 27 22 14 7 5 9 12 15 22 25 27 30 31 34 35 40 38 38 45 36 49 45 32 26 26 29 28 28 38 47 50 50
60 57 56 55 51 49 44 40 36 31 28 24 20 16 15 10 6 5 6 8 12 16 20 24 27 32 32 31 25 21 18 20 52 47 49 52 52 54 46 40 34 34 42
49 45 46 46 44 42 34 28 25 26 24 27 23 22 20 19 17 16 16 15 16 16 16 18 19 19 21 27 25 22 20 27 25 33 39 60 59 57 58 58 56 49 39
38 37 37 36 34 32 23 21 21 25 30 29 26 21 20 20 21 22 22 23 24 27 28 26 26 27 27 27 28 30 30 30 31 38 55 65 67 58 52 58 65 67 63
32 30 26 25 27 24 21 22 24 28 31 25 22 19 19 19 18 19 22 24 25 25 27 29 30 29 29 27 28 29 30 32 37 40 54 70 76 74 67 59 49 49 54
Wind_Direction_850mb
179 180 179 176 175 175 176 173 172 171 162 140 113 101 96 91 101 80 61 25 11 11 34 50 72 93 96 94 125 124 104 91 88 83 80 83 90 82 84 86 85 79 85
179 181 181 174 176 177 179 184 188 187 183 167 104 93 92 109 135 155 360 3 2 0 38 52 60 72 88 93 90 88 87 83 69 58 55 62 76 86 92 96 90 87 79
163 181 181 180 179 178 181 185 186 189 201 212 220 205 168 200 259 311 336 343 355 4 17 37 55 63 65 67 81 82 93 59 21 8 17 22 25 67 95 129 126 108 94
139 179 185 183 186 181 182 187 193 203 212 215 226 247 264 272 284 312 333 325 357 9 2 5 36 38 48 48 35 39 21 45 9 21 25 30 33 30 29 274 215 192 155
123 170 190 192 190 192 196 198 202 202 204 214 232 246 255 263 264 300 322 327 341 350 352 327 316 327 335 359 327 307 309 316 331 357 0 3 7 57 43 39 329 266 243
111 155 190 200 202 200 206 197 196 195 210 226 239 251 261 255 246 288 302 312 318 324 333 316 302 295 294 293 288 289 292 297 304 317 324 330 344 331 341 347 348 327 275
82 158 189 204 209 209 214 212 210 209 212 240 232 244 254 253 274 302 311 313 310 313 324 305 299 297 298 294 286 279 278 287 296 300 306 308 315 317 325 333 336 335 271
56 162 190 206 215 220 223 229 227 231 234 238 241 233 259 242 286 300 301 327 331 315 299 310 311 313 310 308 295 278 274 283 287 289 293 298 305 311 319 326 331 332 331
58 84 211 224 223 225 227 233 231 234 247 241 257 234 248 271 288 301 300 314 325 334 334 332 322 319 318 318 314 317 305 299 302 307 305 305 306 310 314 320 322 321 316
201 242 251 248 243 238 234 234 236 241 244 242 254 246 249 260 273 281 291 298 316 328 344 346 336 327 315 301 299 309 313 313 312 313 313 315 316 315 316 317 319 315 310
228 233 232 238 247 247 241 241 241 242 242 243 241 244 249 261 270 272 277 287 298 306 318 330 326 326 308 292 277 270 274 284 295 303 306 308 309 311 312 315 316 312 311
239 244 245 243 238 240 247 242 239 240 239 242 245 249 256 264 263 277 287 284 290 292 301 308 316 308 297 288 286 285 284 283 284 290 297 301 305 308 309 310 311 312 313
260 255 248 241 237 236 236 242 244 237 241 237 243 242 251 262 265 275 277 279 288 301 306 303 300 305 293 281 276 278 280 283 285 287 288 290 294 298 301 304 309 313 314
308 302 287 257 243 238 237 231 241 241 235 236 238 252 260 259 268 273 284 283 283 293 302 311 305 289 289 279 273 271 273 276 279 280 280 282 286 293 297 299 301 306 309
311 296 287 272 255 239 235 229 227 240 246 239 238 244 251 261 268 277 282 283 283 295 299 308 315 307 290 284 276 271 271 272 274 276 278 280 281 284 287 290 295 301 304
322 312 297 287 275 253 228 222 209 215 228 263 259 252 255 255 260 273 281 284 280 294 297 303 314 306 290 285 284 280 275 271 271 270 270 272 276 279 283 287 289 294 300
341 341 336 316 304 248 211 201 192 196 207 207 203 199 229 248 257 261 274 279 267 280 293 292 307 307 308 287 284 284 282 279 277 274 270 268 267 269 270 275 280 283 285
23 21 26 34 60 115 152 163 170 179 180 174 247 275 276 262 256 258 254 258 261 258 274 297 297 298 306 302 298 295 293 287 282 278 275 274 269 267 267 270 272 274 275
64 68 71 78 89 94 118 132 138 144 153 152 221 272 321 302 288 287 297 286 301 271 265 275 272 287 290 286 286 292 301 301 293 284 280 277 274 274 272 267 266 266 265
80 81 81 86 92 100 105 111 115 116 128 156 330 319 324 313 324 341 318 332 321 318 313 298 284 292 286 287 290 288 295 302 302 299 289 280 277 275 272 270 269 268 265
98 93 91 92 89 91 100 105 113 124 120 85 27 22 353 320 311 320 320 319 315 314 318 319 322 320 319 314 309 300 295 292 295 297 293 285 278 271 265 266 269 270 269
94 93 93 92 92 89 87 84 87 90 91 85 82 75 68 348 313 306 302 304 308 305 301 299 300 304 305 310 316 317 317 304 301 284 282 292 291 298 292 270 262 261 263
91 87 85 85 84 80 80 81 83 88 94 97 90 84 77 69 44 4 341 324 305 299 295 298 304 302 303 300 309 319 321 300 305 295 289 290 286 290 291 291 288 273 263
91 88 87 82 75 75 81 85 96 101 105 92 79 68 60 51 44 36 26 18 10 5 350 344 337 330 322 311 305 292 288 296 311 312 301 298 297 293 291 288 284 278 276
101 96 89 81 73 76 80 98 95 90 85 81 73 61 53 47 38 33 29 26 19 18 18 14 8 1 347 339 335 325 308 298 296 304 308 303 302 300 292 286 283 279 276
101 94 91 82 66 73 81 85 81 83 89 85 72 55 42 37 31 27 20 14 13 9 4 3 3 358 357 352 348 342 335 330 315 303 298 300 303 305 304 301 295 289 282